2016-10-09 00:06:51 r, 16.78m,0000000017Hz,0000027005c,0000000.059s, 022.5C,00002195
2016-10-09 00:16:51 r, 16.65m,0000000019Hz,0000023915c,0000000.052s, 022.5C,00002195
2016-10-09 00:26:51 r, 16.68m,0000000019Hz,0000024377c,0000000.053s, 022.2C,00002195
2016-10-09 00:36:52 r, 16.51m,0000000022Hz,0000020969c,0000000.046s, 022.5C,00002195
2016-10-09 00:46:51 r, 16.97m,0000000015Hz,0000031895c,0000000.069s, 022.5C,00002195
2016-10-09 00:56:51 r, 16.43m,0000000023Hz,0000019488c,0000000.042s, 022.5C,00002195
2016-10-09 01:06:51 r, 16.63m,0000000020Hz,0000023412c,0000000.051s, 022.5C,00002195
2016-10-09 01:16:51 r, 16.89m,0000000015Hz,0000029798c,0000000.065s, 022.5C,00002195
2016-10-09 01:26:51 r, 16.52m,0000000022Hz,0000021201c,0000000.046s, 022.5C,00002195
2016-10-09 01:36:51 r, 16.49m,0000000022Hz,0000020678c,0000000.045s, 022.5C,00002195
2016-10-09 01:46:52 r, 16.58m,0000000021Hz,0000022279c,0000000.048s, 022.5C,00002195
2016-10-09 01:56:51 r, 16.61m,0000000020Hz,0000023020c,0000000.050s, 022.5C,00002195
2016-10-09 02:06:51 r, 16.46m,0000000024Hz,0000019990c,0000000.043s, 022.5C,00002195
2016-10-09 02:16:52 r, 17.16m,0000000012Hz,0000038397c,0000000.083s, 022.5C,00002195
2016-10-09 02:26:51 r, 16.88m,0000000015Hz,0000029381c,0000000.064s, 022.5C,00002195
2016-10-09 02:36:51 r, 16.86m,0000000016Hz,0000029055c,0000000.063s, 022.5C,00002195
2016-10-09 02:46:51 r, 16.76m,0000000017Hz,0000026311c,0000000.057s, 022.5C,00002195
2016-10-09 02:56:51 r, 16.96m,0000000014Hz,0000031539c,0000000.068s, 022.2C,00002195
2016-10-09 03:06:51 r, 17.04m,0000000014Hz,0000034296c,0000000.074s, 022.2C,00002195
2016-10-09 03:16:51 r, 16.77m,0000000018Hz,0000026537c,0000000.058s, 022.2C,00002195
2016-10-09 03:26:52 r, 17.18m,0000000012Hz,0000038676c,0000000.084s, 022.2C,00002195
2016-10-09 03:36:51 r, 16.67m,0000000019Hz,0000024156c,0000000.052s, 022.2C,00002195
2016-10-09 03:46:51 r, 16.92m,0000000015Hz,0000030592c,0000000.066s, 021.9C,00002195
2016-10-09 03:56:53 r, 17.37m,0000000011Hz,0000045995c,0000000.100s, 021.9C,00002195
2016-10-09 04:06:51 r, 18.28m,0000000005Hz,0000105636c,0000000.229s, 021.5C,00002195
2016-10-09 04:16:52 r, 18.17m,0000000005Hz,0000095924c,0000000.208s, 021.5C,00002195
2016-10-09 04:26:52 r, 18.53m,0000000004Hz,0000134048c,0000000.291s, 021.2C,00002195
2016-10-09 04:36:52 r, 18.43m,0000000004Hz,0000121045c,0000000.263s, 021.2C,00002195
2016-10-09 04:46:51 r, 17.89m,0000000007Hz,0000074920c,0000000.163s, 020.9C,00002195
2016-10-09 04:56:51 r, 18.33m,0000000004Hz,0000112343c,0000000.244s, 020.9C,00002195
2016-10-09 05:06:51 r, 18.66m,0000000003Hz,0000151738c,0000000.329s, 020.6C,00002195
2016-10-09 05:16:54 r, 18.67m,0000000003Hz,0000152735c,0000000.331s, 020.6C,00002195
2016-10-09 05:26:51 r, 18.64m,0000000003Hz,0000148796c,0000000.323s, 020.3C,00002195
2016-10-09 05:36:51 r, 18.56m,0000000004Hz,0000138269c,0000000.300s, 020.3C,00002195
2016-10-09 05:46:51 r, 18.60m,0000000003Hz,0000144100c,0000000.313s, 020.3C,00002195
2016-10-09 05:56:51 r, 18.57m,0000000004Hz,0000139448c,0000000.303s, 019.9C,00002195
2016-10-09 06:06:52 r, 18.18m,0000000005Hz,0000096909c,0000000.210s, 019.9C,00002195
2016-10-09 06:16:52 r, 18.07m,0000000006Hz,0000088185c,0000000.191s, 019.9C,00002195
2016-10-09 06:26:54 r, 18.25m,0000000004Hz,0000103679c,0000000.225s, 019.9C,00002195
2016-10-09 06:36:52 r, 18.14m,0000000005Hz,0000093944c,0000000.204s, 019.9C,00002195
2016-10-09 06:46:51 r, 16.65m,0000000020Hz,0000023704c,0000000.051s, 019.9C,00002195
2016-10-09 06:56:51 r, 15.38m,0000000062Hz,0000007389c,0000000.016s, 019.9C,00002195
2016-10-09 07:06:52 r, 13.47m,0000000362Hz,0000000000c,0000000.000s, 019.9C,00002195
2016-10-09 07:16:51 r, 11.43m,0000002392Hz,0000000000c,0000000.000s, 019.9C,00002195
2016-10-09 07:26:51 r, 09.44m,0000014928Hz,0000000000c,0000000.000s, 019.9C,00002195
2016-10-09 07:36:51 r, 08.01m,0000055725Hz,0000000000c,0000000.000s, 019.9C,00002195
2016-10-09 07:46:51 r, 07.07m,0000132471Hz,0000000000c,0000000.000s, 019.6C,00002195
2016-10-09 07:56:52 r, 06.08m,0000329229Hz,0000000000c,0000000.000s, 019.6C,00002195
2016-10-09 08:06:51 r, 00.00m,0000427356Hz,0000000000c,0000000.000s, 019.6C,00002195
2016-10-09 08:16:52 r, 00.00m,0000563410Hz,0000000000c,0000000.000s, 019.9C,00002195
2016-10-09 08:26:51 r, 00.00m,0000563467Hz,0000000000c,0000000.000s, 020.6C,00002195
2016-10-09 08:36:51 r, 00.00m,0000563534Hz,0000000000c,0000000.000s, 020.6C,00002195
2016-10-09 08:46:51 r, 00.00m,0000563512Hz,0000000000c,0000000.000s, 020.9C,00002195
2016-10-09 08:56:51 r, 00.00m,0000563639Hz,0000000000c,0000000.000s, 021.2C,00002195
2016-10-09 09:06:51 r, 00.00m,0000563604Hz,0000000000c,0000000.000s, 021.5C,00002195
2016-10-09 09:16:52 r, 00.00m,0000563703Hz,0000000000c,0000000.000s, 022.2C,00002195
2016-10-09 09:26:51 r, 00.00m,0000563714Hz,0000000000c,0000000.000s, 022.5C,00002195
2016-10-09 09:36:51 r, 00.00m,0000563736Hz,0000000000c,0000000.000s, 022.5C,00002195
2016-10-09 09:46:52 r, 00.00m,0000563800Hz,0000000000c,0000000.000s, 022.8C,00002195
2016-10-09 09:56:52 r, 00.00m,0000563867Hz,0000000000c,0000000.000s, 023.5C,00002195
2016-10-09 10:06:51 r, 00.00m,0000563923Hz,0000000000c,0000000.000s, 023.8C,00002195
2016-10-09 10:16:51 r, 00.00m,0000563828Hz,0000000000c,0000000.000s, 023.5C,00002195
2016-10-09 10:26:51 r, 00.00m,0000563778Hz,0000000000c,0000000.000s, 024.1C,00002195
2016-10-09 10:36:51 r, 00.00m,0000563919Hz,0000000000c,0000000.000s, 023.5C,00002195
2016-10-09 10:46:52 r, 00.00m,0000563800Hz,0000000000c,0000000.000s, 023.8C,00002195
2016-10-09 10:56:51 r, 00.00m,0000563902Hz,0000000000c,0000000.000s, 024.1C,00002195
2016-10-09 11:06:51 r, 00.00m,0000563997Hz,0000000000c,0000000.000s, 024.4C,00002195
2016-10-09 11:16:53 r, 00.00m,0000564076Hz,0000000000c,0000000.000s, 025.1C,00002195
2016-10-09 11:26:52 r, 00.00m,0000564159Hz,0000000000c,0000000.000s, 025.7C,00002195
2016-10-09 11:36:51 r, 00.00m,0000564165Hz,0000000000c,0000000.000s, 026.1C,00002195
2016-10-09 11:46:51 r, 00.00m,0000564183Hz,0000000000c,0000000.000s, 026.1C,00002195
2016-10-09 11:56:51 r, 00.00m,0000564363Hz,0000000000c,0000000.000s, 026.4C,00002195
2016-10-09 12:06:51 r, 00.00m,0000564225Hz,0000000000c,0000000.000s, 026.7C,00002195
2016-10-09 12:16:51 r, 00.00m,0000564389Hz,0000000000c,0000000.000s, 026.7C,00002195
2016-10-09 12:26:53 r, 00.00m,0000564418Hz,0000000000c,0000000.000s, 027.7C,00002195
2016-10-09 12:36:51 r, 00.00m,0000564565Hz,0000000000c,0000000.000s, 028.3C,00002195
2016-10-09 12:46:51 r, 00.00m,0000564451Hz,0000000000c,0000000.000s, 028.6C,00002195
2016-10-09 12:56:51 r, 00.00m,0000564599Hz,0000000000c,0000000.000s, 028.6C,00002195
2016-10-09 13:06:51 r, 00.00m,0000564660Hz,0000000000c,0000000.000s, 029.6C,00002195
2016-10-09 13:16:53 r, 00.00m,0000564801Hz,0000000000c,0000000.000s, 030.9C,00002195
2016-10-09 13:26:52 r, 00.00m,0000564796Hz,0000000000c,0000000.000s, 030.9C,00002195
2016-10-09 13:36:51 r, 00.00m,0000564666Hz,0000000000c,0000000.000s, 030.2C,00002195
2016-10-09 13:46:52 r, 00.00m,0000564342Hz,0000000000c,0000000.000s, 029.0C,00002195
2016-10-09 13:56:52 r, 00.00m,0000564353Hz,0000000000c,0000000.000s, 028.3C,00002195
2016-10-09 14:06:52 r, 00.00m,0000564349Hz,0000000000c,0000000.000s, 028.3C,00002195
2016-10-09 14:16:52 r, 00.00m,0000564347Hz,0000000000c,0000000.000s, 028.3C,00002195
2016-10-09 14:26:53 r, 00.00m,0000564368Hz,0000000000c,0000000.000s, 028.3C,00002195
2016-10-09 14:36:52 r, 00.00m,0000564334Hz,0000000000c,0000000.000s, 028.3C,00002195
2016-10-09 14:46:52 r, 00.00m,0000564345Hz,0000000000c,0000000.000s, 027.7C,00002195
2016-10-09 14:56:53 r, 00.00m,0000564241Hz,0000000000c,0000000.000s, 028.0C,00002195
2016-10-09 15:06:52 r, 00.00m,0000564398Hz,0000000000c,0000000.000s, 028.3C,00002195
2016-10-09 15:16:52 r, 00.00m,0000564379Hz,0000000000c,0000000.000s, 028.6C,00002195
2016-10-09 15:26:52 r, 00.00m,0000564478Hz,0000000000c,0000000.000s, 029.0C,00002195
2016-10-09 15:36:52 r, 00.00m,0000564433Hz,0000000000c,0000000.000s, 029.3C,00002195
2016-10-09 15:46:52 r, 00.00m,0000564434Hz,0000000000c,0000000.000s, 029.6C,00002195
2016-10-09 15:56:52 r, 00.00m,0000564468Hz,0000000000c,0000000.000s, 029.6C,00002195
2016-10-09 16:06:52 r, 00.00m,0000564514Hz,0000000000c,0000000.000s, 029.6C,00002195
2016-10-09 16:16:52 r, 00.00m,0000564439Hz,0000000000c,0000000.000s, 029.6C,00002195
2016-10-09 16:26:52 r, 00.00m,0000564342Hz,0000000000c,0000000.000s, 029.3C,00002195
2016-10-09 16:36:52 r, 00.00m,0000564397Hz,0000000000c,0000000.000s, 029.3C,00002195
2016-10-09 16:46:52 r, 00.00m,0000564357Hz,0000000000c,0000000.000s, 029.3C,00002195
2016-10-09 16:56:52 r, 00.00m,0000564383Hz,0000000000c,0000000.000s, 029.3C,00002195
2016-10-09 17:06:52 r, 00.00m,0000564386Hz,0000000000c,0000000.000s, 029.3C,00002195
2016-10-09 17:16:52 r, 00.00m,0000564380Hz,0000000000c,0000000.000s, 029.0C,00002195
2016-10-09 17:26:52 r, 00.00m,0000564355Hz,0000000000c,0000000.000s, 029.0C,00002195
2016-10-09 17:36:52 r, 00.00m,0000564276Hz,0000000000c,0000000.000s, 028.6C,00002195
2016-10-09 17:46:52 r, 00.00m,0000564293Hz,0000000000c,0000000.000s, 028.6C,00002195
2016-10-09 17:56:52 r, 00.00m,0000564285Hz,0000000000c,0000000.000s, 028.3C,00002195
2016-10-09 18:06:52 r, 00.00m,0000564153Hz,0000000000c,0000000.000s, 028.3C,00002195
2016-10-09 18:16:52 r, 00.00m,0000453830Hz,0000000000c,0000000.000s, 028.0C,00002195
2016-10-09 18:26:52 r, 06.44m,0000236583Hz,0000000000c,0000000.000s, 028.0C,00002195
2016-10-09 18:36:52 r, 07.28m,0000109175Hz,0000000000c,0000000.000s, 028.0C,00002195
2016-10-09 18:46:52 r, 07.97m,0000057417Hz,0000000000c,0000000.000s, 027.7C,00002195
2016-10-09 18:56:52 r, 09.12m,0000020134Hz,0000000000c,0000000.000s, 028.0C,00002195
2016-10-09 19:06:52 r, 11.03m,0000003446Hz,0000000000c,0000000.000s, 027.7C,00002195
2016-10-09 19:16:52 r, 13.10m,0000000510Hz,0000000000c,0000000.000s, 028.0C,00002195
2016-10-09 19:26:52 r, 14.93m,0000000095Hz,0000004907c,0000000.011s, 028.0C,00002195
2016-10-09 19:36:52 r, 15.73m,0000000045Hz,0000010187c,0000000.022s, 027.7C,00002195
2016-10-09 19:46:52 r, 15.96m,0000000036Hz,0000012548c,0000000.027s, 028.0C,00002195
2016-10-09 19:56:52 r, 15.87m,0000000039Hz,0000011626c,0000000.025s, 028.0C,00002195
2016-10-09 20:06:52 r, 15.92m,0000000038Hz,0000012109c,0000000.026s, 028.0C,00002195
2016-10-09 20:16:52 r, 15.85m,0000000040Hz,0000011399c,0000000.025s, 028.0C,00002195
2016-10-09 20:26:52 r, 15.82m,0000000041Hz,0000011088c,0000000.024s, 028.0C,00002195
2016-10-09 20:36:52 r, 15.91m,0000000038Hz,0000012082c,0000000.026s, 028.0C,00002195
2016-10-09 20:46:52 r, 15.93m,0000000038Hz,0000012244c,0000000.027s, 028.3C,00002195
2016-10-09 20:56:52 r, 15.95m,0000000036Hz,0000012515c,0000000.027s, 028.3C,00002195
2016-10-09 21:06:52 r, 16.05m,0000000034Hz,0000013712c,0000000.030s, 028.3C,00002195
2016-10-09 21:16:52 r, 16.07m,0000000033Hz,0000014009c,0000000.030s, 028.3C,00002195
2016-10-09 21:26:52 r, 15.98m,0000000036Hz,0000012829c,0000000.028s, 028.3C,00002195
2016-10-09 21:36:54 r, 15.98m,0000000036Hz,0000012834c,0000000.028s, 028.3C,00002195
2016-10-09 21:46:52 r, 16.06m,0000000034Hz,0000013778c,0000000.030s, 028.6C,00002195
2016-10-09 21:56:52 r, 16.77m,0000000017Hz,0000026681c,0000000.058s, 028.6C,00002195
2016-10-09 22:06:52 r, 17.21m,0000000011Hz,0000039685c,0000000.086s, 028.6C,00002195
2016-10-09 22:16:52 r, 16.96m,0000000014Hz,0000031596c,0000000.069s, 028.3C,00002195
2016-10-09 22:26:53 r, 16.75m,0000000018Hz,0000026147c,0000000.057s, 028.3C,00002195
2016-10-09 22:36:53 r, 16.52m,0000000021Hz,0000021107c,0000000.046s, 028.3C,00002195
2016-10-09 22:46:52 r, 17.02m,0000000014Hz,0000033593c,0000000.073s, 028.3C,00002195
2016-10-09 22:56:53 r, 16.97m,0000000014Hz,0000031936c,0000000.069s, 028.0C,00002195
2016-10-09 23:06:53 r, 16.90m,0000000016Hz,0000030047c,0000000.065s, 028.0C,00002195
2016-10-09 23:16:52 r, 17.05m,0000000013Hz,0000034532c,0000000.075s, 028.0C,00002195
2016-10-09 23:26:53 r, 17.21m,0000000012Hz,0000040108c,0000000.087s, 027.7C,00002195
2016-10-09 23:36:53 r, 17.21m,0000000012Hz,0000040019c,0000000.087s, 027.7C,00002195
2016-10-09 23:46:52 r, 17.27m,0000000011Hz,0000042123c,0000000.091s, 027.7C,00002195
2016-10-09 23:56:52 r, 17.38m,0000000009Hz,0000046126c,0000000.100s, 027.3C,00002195
